GW5738 Weather Reports


time (UTC)temp
C
wind
direction
speed
KPH
gust
KPH
rain 1hr
cm
rain 24hr
cm
rain mn
cm
humidity
%
barometer
mb
20260508174136 19 167 16.1 24.1 0.00 0.00 0.13 70 1010.7
20260508174051 19 147 12.9 20.9 0.00 0.00 0.13 71 1014.2
20260508173636 19 167 16.1 24.1 0.00 0.00 0.13 70 1010.5
20260508173554 19 165 14.5 24.1 0.00 0.00 0.13 71 1013.9
20260508173136 19 128 14.5 24.1 0.00 0.00 0.13 71 1010.6
20260508173053 19 162 16.1 17.7 0.00 0.00 0.13 71 1013.9
20260508172637 19 128 14.5 24.1 0.00 0.00 0.13 71 1010.4
20260508172552 19 153 11.3 20.9 0.00 0.00 0.13 71 1013.9
20260508172136 19 128 9.7 25.7 0.00 0.00 0.13 70 1010.4
20260508172053 19 137 17.7 20.9 0.00 0.00 0.13 71 1013.9
20260508171637 19 128 9.7 25.7 0.00 0.00 0.13 70 1010.6
20260508171552 19 141 14.5 25.7 0.00 0.00 0.13 70 1013.5
20260508171136 19 169 19.3 17.7 0.00 0.00 0.13 70 1010.1
20260508171053 19 154 8.0 19.3 0.00 0.00 0.13 70 1013.9
20260508170637 19 148 16.1 19.3 0.00 0.00 0.13 71 1010.5
20260508170552 19 160 17.7 24.1 0.00 0.00 0.13 70 1013.9
20260508170137 19 154 14.5 19.3 0.00 0.00 0.13 71 1010.3
20260508170052 19 145 11.3 19.3 0.00 0.00 0.13 71 1013.9
20260508165637 18 154 14.5 17.7 0.00 0.00 0.13 71 1010.3
20260508165551 18 131 27.4 27.4 0.00 0.00 0.13 71 1013.9
20260508165136 18 152 11.3 19.3 0.00 0.00 0.13 72 1010.4
20260508165052 18 192 4.8 17.7 0.00 0.00 0.13 72 1013.5
20260508164637 18 152 12.9 19.3 0.00 0.00 0.13 72 1010.4
20260508164554 18 150 16.1 20.9 0.00 0.00 0.13 72 1013.5
20260508164136 18 142 17.7 24.1 0.00 0.00 0.13 71 1010.5
20260508164052 18 150 9.7 29.0 0.00 0.00 0.13 70 1013.9
20260508163636 19 141 12.9 22.5 0.00 0.00 0.13 71 1010.2
20260508163551 19 145 8.0 22.5 0.00 0.00 0.13 71 1013.5
20260508163137 18 143 17.7 24.1 0.00 0.00 0.13 71 1010.0
20260508163050 18 166 9.7 17.7 0.00 0.00 0.13 72 1013.5
20260508162636 18 168 4.8 14.5 0.00 0.00 0.13 71 1010.1
20260508162552 18 163 12.9 27.4 0.00 0.00 0.13 71 1013.5
20260508162136 18 118 11.3 20.9 0.00 0.00 0.13 71 1010.1
20260508162051 18 121 9.7 14.5 0.00 0.00 0.13 71 1013.5
20260508161636 18 147 14.5 27.4 0.00 0.00 0.13 71 1010.1
20260508161552 18 147 12.9 19.3 0.00 0.00 0.13 72 1013.5
20260508161137 18 169 12.9 27.4 0.00 0.00 0.13 71 1010.3
20260508161053 18 139 14.5 16.1 0.00 0.00 0.13 71 1013.9
20260508160637 18 169 12.9 20.9 0.00 0.00 0.13 70 1010.7
20260508160554 18 159 11.3 20.9 0.00 0.00 0.13 70 1013.9
20260508160136 18 173 9.7 17.7 0.00 0.00 0.13 73 1010.9
20260508160053 18 158 8.0 16.1 0.00 0.00 0.13 73 1014.2
20260508155636 18 173 11.3 17.7 0.00 0.00 0.13 73 1011.0
20260508155554 18 164 11.3 19.3 0.00 0.00 0.13 73 1014.2
20260508155136 18 172 17.7 19.3 0.00 0.00 0.13 74 1011.0
20260508155052 18 191 8.0 17.7 0.00 0.00 0.13 74 1014.6
20260508154637 18 187 11.3 19.3 0.00 0.00 0.13 74 1011.0
20260508154552 18 171 16.1 19.3 0.00 0.00 0.13 73 1014.2
20260508154136 18 182 11.3 20.9 0.00 0.00 0.13 71 1011.2
20260508154053 18 178 11.3 16.1 0.00 0.00 0.13 73 1014.2
20260508153637 18 166 16.1 20.9 0.00 0.00 0.13 71 1011.1
20260508153551 18 168 16.1 22.5 0.00 0.00 0.13 71 1014.6
20260508153137 19 167 11.3 27.4 0.00 0.00 0.13 70 1011.2
20260508153053 19 178 11.3 27.4 0.00 0.00 0.13 70 1014.6
20260508152637 19 175 11.3 24.1 0.00 0.00 0.13 69 1011.1
20260508152554 19 179 4.8 17.7 0.00 0.00 0.13 69 1014.6
20260508152137 19 183 11.3 20.9 0.00 0.00 0.13 68 1011.3
20260508152052 19 171 12.9 25.7 0.00 0.00 0.13 68 1014.6
20260508151637 19 183 22.5 20.9 0.00 0.00 0.13 67 1011.1
20260508151553 19 207 11.3 27.4 0.00 0.00 0.13 67 1014.6
20260508151137 19 176 19.3 25.7 0.00 0.00 0.13 66 1011.2
20260508151052 19 169 11.3 22.5 0.00 0.00 0.13 67 1014.6
20260508150637 20 176 17.7 25.7 0.00 0.00 0.13 66 1011.1
20260508150552 20 175 17.7 25.7 0.00 0.00 0.13 66 1014.6
20260508150136 20 171 25.7 29.0 0.00 0.00 0.13 65 1011.1
20260508150054 20 174 14.5 20.9 0.00 0.00 0.13 66 1014.6
20260508145636 20 171 14.5 29.0 0.00 0.00 0.13 65 1011.1
20260508145552 20 175 16.1 17.7 0.00 0.00 0.13 65 1014.6
20260508145137 20 185 16.1 25.7 0.00 0.00 0.13 63 1011.1
20260508145053 20 173 16.1 27.4 0.00 0.00 0.13 64 1014.6
20260508144637 20 185 16.1 25.7 0.00 0.00 0.13 63 1011.1
20260508144553 20 176 16.1 27.4 0.00 0.00 0.13 64 1014.2
20260508144136 20 161 20.9 20.9 0.00 0.00 0.13 62 1010.9
20260508144052 20 172 8.0 20.9 0.00 0.00 0.13 62 1014.2
20260508143636 20 176 24.1 32.2 0.00 0.00 0.13 61 1011.0
20260508143552 20 147 16.1 32.2 0.00 0.00 0.13 61 1014.2
20260508143136 20 170 12.9 24.1 0.00 0.00 0.13 61 1011.2
20260508143052 20 164 12.9 29.0 0.00 0.00 0.13 61 1014.6
20260508142637 20 170 12.9 24.1 0.00 0.00 0.13 61 1011.2
20260508142553 20 173 17.7 20.9 0.00 0.00 0.13 61 1014.6
20260508142137 20 140 12.9 24.1 0.00 0.00 0.13 60 1011.0
20260508142052 20 160 12.9 25.7 0.00 0.00 0.13 61 1014.2
20260508141636 20 133 20.9 22.5 0.00 0.00 0.13 62 1011.2
20260508141553 20 147 9.7 24.1 0.00 0.00 0.13 60 1014.2
20260508141136 20 142 12.9 25.7 0.00 0.00 0.13 63 1011.2
20260508141053 20 173 19.3 20.9 0.00 0.00 0.13 62 1014.2
20260508140637 20 142 12.9 25.7 0.00 0.00 0.13 63 1011.4
20260508140553 20 151 17.7 25.7 0.00 0.00 0.13 63 1014.9
20260508140136 19 155 11.3 24.1 0.00 0.00 0.13 65 1011.5
20260508140052 19 154 12.9 27.4 0.00 0.00 0.13 64 1014.9
20260508135636 19 129 14.5 24.1 0.00 0.00 0.13 64 1011.2
20260508135553 19 151 19.3 27.4 0.00 0.00 0.13 65 1014.6
20260508135137 19 129 14.5 24.1 0.00 0.00 0.13 64 1011.4
20260508135052 19 137 6.4 24.1 0.00 0.00 0.13 64 1014.9
20260508134637 19 160 17.7 27.4 0.00 0.00 0.13 67 1011.3
20260508134554 18 174 17.7 25.7 0.00 0.00 0.13 66 1014.6
20260508134137 18 151 17.7 29.0 0.00 0.00 0.13 67 1011.5
20260508134054 18 168 12.9 29.0 0.00 0.00 0.13 66 1014.9
20260508133637 19 151 19.3 29.0 0.00 0.00 0.13 66 1011.3
20260508133552 19 165 24.1 27.4 0.00 0.00 0.13 66 1014.6
20260508133136 19 189 16.1 24.1 0.00 0.00 0.13 64 1011.2
20260508133051 19 176 11.3 25.7 0.00 0.00 0.13 66 1014.9
20260508132636 20 189 16.1 24.1 0.00 0.00 0.13 64 1011.5
20260508132552 19 175 12.9 20.9 0.00 0.00 0.13 64 1014.6
20260508132136 18 145 9.7 17.7 0.00 0.00 0.13 69 1011.4
20260508132053 19 159 8.0 17.7 0.00 0.00 0.13 68 1014.9
20260508131637 19 150 14.5 27.4 0.00 0.00 0.13 66 1011.3
20260508131554 18 159 12.9 20.9 0.00 0.00 0.13 69 1014.6
20260508131137 19 161 3.2 17.7 0.00 0.00 0.13 68 1011.6
20260508131050 19 151 17.7 20.9 0.00 0.00 0.13 66 1014.9
20260508130636 18 181 17.7 25.7 0.00 0.00 0.13 69 1011.5
20260508130552 18 171 4.8 17.7 0.00 0.00 0.13 69 1014.9
20260508130137 18 172 22.5 25.7 0.00 0.00 0.13 69 1011.7
20260508130055 18 175 19.3 27.4 0.00 0.00 0.13 69 1014.9
20260508125636 18 152 16.1 25.7 0.00 0.00 0.13 68 1011.8
20260508125552 18 176 17.7 24.1 0.00 0.00 0.13 67 1014.9
20260508125137 18 152 16.1 25.7 0.00 0.00 0.13 68 1011.5
20260508125053 18 167 22.5 22.5 0.00 0.00 0.13 68 1014.9
20260508124637 18 175 20.9 22.5 0.00 0.00 0.13 69 1011.4
20260508124552 18 169 22.5 22.5 0.00 0.00 0.13 69 1014.9
20260508124137 18 192 14.5 22.5 0.00 0.00 0.13 68 1011.4
20260508124052 18 148 12.9 24.1 0.00 0.00 0.13 69 1014.9
20260508123637 18 164 19.3 27.4 0.00 0.00 0.13 68 1011.6
20260508123552 18 163 16.1 22.5 0.00 0.00 0.13 68 1014.9
20260508123137 18 170 17.7 27.4 0.00 0.00 0.13 66 1011.5
20260508123054 18 157 24.1 32.2 0.00 0.00 0.13 66 1014.9
20260508122637 18 146 24.1 27.4 0.00 0.00 0.13 66 1011.4
20260508122551 18 161 17.7 25.7 0.00 0.00 0.13 67 1014.6
20260508122136 19 151 19.3 25.7 0.00 0.00 0.13 66 1011.3
20260508122052 19 170 22.5 25.7 0.00 0.00 0.13 66 1014.6
20260508121636 19 161 14.5 22.5 0.00 0.00 0.13 64 1011.5
20260508121552 19 174 19.3 25.7 0.00 0.00 0.13 65 1014.6
20260508121137 20 161 19.3 24.1 0.00 0.00 0.13 62 1011.2
20260508121052 20 167 12.9 25.7 0.00 0.00 0.13 64 1014.9
20260508120637 20 136 14.5 29.0 0.00 0.00 0.13 62 1011.3
20260508120552 20 130 11.3 24.1 0.00 0.00 0.13 62 1014.6
20260508120136 19 160 20.9 25.7 0.00 0.00 0.13 64 1011.3
20260508120053 19 154 22.5 25.7 0.00 0.00 0.13 63 1014.9
20260508115637 19 160 20.9 25.7 0.00 0.00 0.13 64 1011.4
20260508115554 19 110 19.3 24.1 0.00 0.00 0.13 65 1014.9
20260508115137 19 126 8.0 20.9 0.00 0.00 0.13 64 1011.4
20260508115057 19 141 14.5 20.9 0.00 0.00 0.13 65 1014.9
20260508114637 19 119 14.5 14.5 0.00 0.00 0.13 66 1011.4
20260508114552 19 102 12.9 17.7 0.00 0.00 0.13 65 1014.6
20260508114137 18 99 16.1 22.5 0.00 0.00 0.13 66 1011.2
20260508114051 18 150 9.7 16.1 0.00 0.00 0.13 67 1014.6
20260508113636 18 103 11.3 19.3 0.00 0.00 0.13 68 1011.3
20260508113552 18 130 6.4 22.5 0.00 0.00 0.13 67 1014.6
20260508113137 18 130 6.4 17.7 0.00 0.00 0.13 70 1011.5
20260508113052 17 176 4.8 20.9 0.00 0.00 0.13 69 1014.9
20260508112637 17 130 6.4 17.7 0.00 0.00 0.13 70 1011.5
20260508112552 17 109 6.4 14.5 0.00 0.00 0.13 71 1014.9
20260508112137 17 145 1.6 11.3 0.00 0.00 0.13 74 1011.4
20260508112052 17 10 3.2 14.5 0.00 0.00 0.13 74 1014.9
20260508111637 16 132 12.9 12.9 0.00 0.00 0.13 75 1011.6
20260508111553 16 144 6.4 20.9 0.00 0.00 0.13 75 1014.9
20260508111137 16 132 12.9 17.7 0.00 0.00 0.13 75 1011.8
20260508111051 16 113 9.7 17.7 0.00 0.00 0.13 75 1015.2
20260508110636 16 142 20.9 27.4 0.00 0.00 0.13 75 1011.8
20260508110551 16 104 8.0 20.9 0.00 0.00 0.13 76 1015.2
20260508110137 16 142 20.9 27.4 0.00 0.00 0.13 75 1011.9
20260508110052 16 162 17.7 27.4 0.00 0.00 0.13 75 1015.2
20260508105636 16 143 14.5 17.7 0.00 0.00 0.13 75 1012.0
20260508105553 16 152 11.3 27.4 0.00 0.00 0.13 75 1015.2
20260508105136 17 143 22.5 30.6 0.00 0.00 0.13 76 1011.8
20260508105054 16 121 19.3 20.9 0.00 0.00 0.13 76 1015.2
20260508104637 16 134 8.0 22.5 0.00 0.00 0.13 77 1011.8
20260508104552 17 165 22.5 27.4 0.00 0.00 0.13 77 1015.2
20260508104136 16 134 16.1 20.9 0.00 0.00 0.13 80 1011.9
20260508104052 16 153 14.5 22.5 0.00 0.00 0.13 78 1015.2
20260508103636 16 181 14.5 22.5 0.00 0.00 0.13 80 1012.0
20260508103551 16 152 16.1 20.9 0.00 0.00 0.13 80 1015.2
20260508103137 16 195 9.7 17.7 0.00 0.00 0.13 81 1012.0
20260508103053 16 143 14.5 22.5 0.00 0.00 0.13 81 1015.2
20260508102637 16 155 19.3 29.0 0.00 0.00 0.13 81 1011.9
20260508102552 16 171 14.5 22.5 0.00 0.00 0.13 81 1015.2
20260508102137 17 155 9.7 29.0 0.00 0.00 0.13 80 1012.0
20260508102052 17 153 20.9 29.0 0.00 0.00 0.13 80 1015.2
20260508101637 16 156 17.7 20.9 0.00 0.00 0.13 81 1011.8
20260508101552 16 130 9.7 19.3 0.00 0.00 0.13 82 1015.2
20260508101137 16 114 17.7 29.0 0.00 0.00 0.13 81 1011.6
20260508101052 16 139 9.7 24.1 0.00 0.00 0.13 81 1014.9
20260508100636 16 161 17.7 25.7 0.00 0.00 0.13 82 1011.7
20260508100554 16 118 17.7 22.5 0.00 0.00 0.13 81 1015.2
20260508100136 16 175 11.3 20.9 0.00 0.00 0.13 83 1011.8
20260508100052 16 200 11.3 22.5 0.00 0.00 0.13 82 1015.2
20260508095637 16 132 22.5 24.1 0.00 0.00 0.13 84 1012.0
20260508095553 16 158 14.5 20.9 0.00 0.00 0.13 83 1015.2
20260508095136 16 152 14.5 22.5 0.00 0.00 0.13 84 1012.1
20260508095052 16 117 16.1 25.7 0.00 0.00 0.13 84 1015.6
20260508094636 16 147 14.5 22.5 0.00 0.00 0.13 84 1012.1
20260508094554 16 143 12.9 27.4 0.00 0.00 0.13 85 1015.2
20260508094136 16 133 14.5 29.0 0.00 0.00 0.13 86 1011.9
20260508094053 16 114 17.7 22.5 0.00 0.00 0.13 85 1015.2
20260508093636 16 143 16.1 32.2 0.00 0.00 0.13 87 1011.8
20260508093552 16 167 25.7 27.4 0.00 0.00 0.13 86 1015.2
20260508093137 16 145 22.5 25.7 0.00 0.00 0.13 87 1011.7
20260508093054 16 141 12.9 24.1 0.00 0.00 0.13 86 1015.2
20260508092636 16 145 22.5 25.7 0.00 0.00 0.13 85 1011.8
20260508092554 16 167 22.5 29.0 0.00 0.00 0.13 85 1015.2
20260508092137 16 146 20.9 27.4 0.00 0.00 0.13 84 1011.8
20260508092052 16 145 22.5 27.4 0.00 0.00 0.13 84 1015.2
20260508091637 17 154 20.9 32.2 0.00 0.00 0.13 82 1011.6
20260508091552 17 147 9.7 25.7 0.00 0.00 0.13 82 1014.9
20260508091137 17 154 20.9 27.4 0.00 0.00 0.13 79 1011.5
20260508091053 17 177 24.1 29.0 0.00 0.00 0.13 78 1014.9
20260508090637 17 113 8.0 11.3 0.00 0.00 0.13 79 1011.4
20260508090552 17 136 9.7 11.3 0.00 0.00 0.13 79 1014.9
20260508090137 17 113 8.0 8.0 0.00 0.00 0.13 79 1011.4
20260508090054 17 88 3.2 11.3 0.00 0.00 0.13 79 1014.6
20260508085636 17 161 6.4 16.1 0.00 0.00 0.13 79 1011.4
20260508085554 17 151 6.4 16.1 0.00 0.00 0.13 78 1014.9
20260508085137 18 140 12.9 20.9 0.00 0.00 0.13 77 1011.4
20260508085057 18 165 6.4 14.5 0.00 0.00 0.13 77 1014.9
20260508084637 18 121 6.4 20.9 0.00 0.00 0.13 75 1011.2
20260508084554 18 127 14.5 20.9 0.00 0.00 0.13 76 1014.6
20260508084136 18 150 8.0 20.9 0.00 0.00 0.13 74 1011.2
20260508084051 18 143 6.4 16.1 0.00 0.00 0.13 75 1014.6
20260508083636 18 150 8.0 20.9 0.00 0.00 0.13 74 1011.2
20260508083550 18 157 12.9 14.5 0.00 0.00 0.13 75 1014.6
20260508083137 18 130 6.4 11.3 0.00 0.00 0.13 77 1011.1
20260508083052 18 120 8.0 17.7 0.00 0.00 0.13 76 1014.6
20260508082636 17 102 8.0 11.3 0.00 0.00 0.13 78 1011.3
20260508082550 17 204 4.8 14.5 0.00 0.00 0.13 77 1014.6
20260508082136 17 93 8.0 19.3 0.00 0.00 0.13 78 1011.0
20260508082052 17 104 6.4 14.5 0.00 0.00 0.13 78 1014.2
20260508081636 17 114 16.1 17.7 0.00 0.00 0.13 77 1011.1
20260508081551 17 94 14.5 16.1 0.00 0.00 0.13 77 1014.6
20260508081136 17 106 12.9 17.7 0.00 0.00 0.13 77 1010.9
20260508081052 17 111 16.1 17.7 0.00 0.00 0.13 77 1014.2
20260508080637 17 106 12.9 20.9 0.00 0.00 0.13 77 1011.0
20260508080552 17 108 9.7 20.9 0.00 0.00 0.13 77 1014.2
20260508080136 17 104 6.4 14.5 0.00 0.00 0.13 77 1010.7
20260508080052 17 100 11.3 16.1 0.00 0.00 0.13 77 1014.2
20260508075637 17 99 9.7 17.7 0.00 0.00 0.13 78 1010.9
20260508075552 17 140 11.3 17.7 0.00 0.00 0.13 78 1014.2
20260508075136 17 99 1.6 17.7 0.00 0.00 0.13 79 1011.0
20260508075050 17 71 11.3 12.9 0.00 0.00 0.13 79 1014.2
20260508074636 17 154 9.7 9.7 0.00 0.00 0.13 80 1010.9
20260508074550 17 98 3.2 9.7 0.00 0.00 0.13 80 1014.2
20260508074136 17 120 4.8 12.9 0.00 0.00 0.13 80 1010.8
20260508074051 17 96 1.6 14.5 0.00 0.00 0.13 80 1014.2
20260508073637 16 193 1.6 12.9 0.00 0.00 0.13 81 1010.9
20260508073552 17 121 6.4 12.9 0.00 0.00 0.13 81 1014.2
20260508073137 16 135 8.0 12.9 0.00 0.00 0.13 81 1010.8
20260508073052 16 163 9.7 14.5 0.00 0.00 0.13 81 1014.2
20260508072636 17 48 1.6 8.0 0.00 0.00 0.13 82 1011.0
20260508072552 17 122 17.7 20.9 0.00 0.00 0.13 82 1014.2
20260508072136 16 48 1.6 8.0 0.00 0.00 0.13 82 1010.8
20260508072052 16 120 6.4 8.0 0.00 0.00 0.13 82 1014.2
20260508071636 16 144 1.6 6.4 0.00 0.00 0.13 82 1011.1
20260508071550 16 86 4.8 6.4 0.00 0.00 0.13 82 1014.2
20260508071136 16 144 3.2 6.4 0.00 0.00 0.13 82 1010.9
20260508071053 16 35 3.2 9.7 0.00 0.00 0.13 81 1014.2
20260508070637 16 100 3.2 8.0 0.00 0.00 0.13 81 1010.8
20260508070554 16 205 3.2 8.0 0.00 0.00 0.13 81 1014.2
20260508070136 16 118 4.8 9.7 0.00 0.00 0.13 80 1010.6
20260508070050 16 79 4.8 11.3 0.00 0.00 0.13 80 1014.2
20260508065636 16 133 1.6 9.7 0.00 0.00 0.13 80 1011.0
20260508065551 17 116 4.8 12.9 0.00 0.00 0.13 80 1014.2
20260508065136 16 125 6.4 11.3 0.00 0.00 0.13 81 1010.8
20260508065052 16 294 0.0 12.9 0.00 0.00 0.13 80 1014.2
20260508064637 16 147 6.4 11.3 0.00 0.00 0.13 81 1010.8
20260508064555 16 104 11.3 11.3 0.00 0.00 0.13 82 1013.9
20260508064137 16 98 6.4 9.7 0.00 0.00 0.13 83 1010.6
20260508064054 16 104 4.8 6.4 0.00 0.00 0.13 83 1013.9
20260508063637 16 87 8.0 11.3 0.00 0.00 0.13 83 1010.7
20260508063555 16 72 6.4 6.4 0.00 0.00 0.13 83 1013.9
20260508063136 16 87 8.0 11.3 0.00 0.00 0.13 83 1010.7
20260508063052 16 92 6.4 9.7 0.00 0.00 0.13 82 1013.9
20260508062637 16 133 0.0 8.0 0.00 0.00 0.13 83 1010.7
20260508062553 16 70 8.0 8.0 0.00 0.00 0.13 82 1013.9
20260508062136 16 107 6.4 8.0 0.00 0.00 0.13 84 1010.6
20260508062054 16 100 4.8 8.0 0.00 0.00 0.13 83 1013.9
20260508061636 16 102 3.2 9.7 0.00 0.00 0.13 84 1010.6
20260508061553 16 122 4.8 8.0 0.00 0.00 0.13 84 1013.9
20260508061137 16 102 3.2 9.7 0.00 0.00 0.13 84 1010.4
20260508061052 16 97 4.8 11.3 0.00 0.00 0.13 84 1013.9
20260508060636 16 66 4.8 8.0 0.00 0.00 0.13 84 1010.4
20260508060553 16 108 4.8 12.9 0.00 0.00 0.13 84 1013.9
20260508060137 16 110 6.4 11.3 0.00 0.00 0.13 84 1010.6
20260508060053 16 73 3.2 8.0 0.00 0.00 0.13 84 1013.9
20260508055636 16 321 1.6 11.3 0.00 0.00 0.13 84 1010.4
20260508055552 16 51 6.4 8.0 0.00 0.00 0.13 85 1013.9
20260508055136 15 321 1.6 8.0 0.00 0.00 0.13 85 1010.2
20260508055052 15 318 3.2 8.0 0.00 0.00 0.13 85 1013.5
20260508054636 15 94 3.2 8.0 0.00 0.00 0.13 85 1010.1
20260508054554 15 74 4.8 8.0 0.00 0.00 0.13 85 1013.2
20260508054136 15 94 3.2 8.0 0.00 0.00 0.13 85 1010.0
20260508054052 15 224 3.2 9.7 0.00 0.00 0.13 85 1013.2
20260508053636 15 110 4.8 8.0 0.00 0.00 0.13 86 1009.9
20260508053552 15 100 6.4 8.0 0.00 0.00 0.13 86 1013.2
20260508053137 15 73 6.4 8.0 0.00 0.00 0.13 86 1009.8
20260508053052 15 115 4.8 9.7 0.00 0.00 0.13 86 1013.2
20260508052636 15 234 1.6 6.4 0.00 0.00 0.13 86 1009.8
20260508052552 15 100 4.8 6.4 0.00 0.00 0.13 86 1013.2
20260508052136 15 234 1.6 6.4 0.00 0.00 0.13 87 1009.8
20260508052054 15 122 1.6 11.3 0.00 0.00 0.13 86 1013.2
20260508051636 15 0 0.0 4.8 0.00 0.00 0.13 87 1009.7
20260508051552 15 113 3.2 6.4 0.00 0.00 0.13 87 1013.2
20260508051136 15 55 3.2 4.8 0.00 0.00 0.13 88 1009.5
20260508051052 14 114 6.4 6.4 0.00 0.00 0.13 88 1012.9
20260508050636 14 36 4.8 4.8 0.00 0.00 0.13 88 1009.7
20260508050551 14 50 4.8 4.8 0.00 0.00 0.13 88 1012.9
20260508050136 14 36 4.8 4.8 0.00 0.00 0.13 88 1009.6
20260508050054 14 81 4.8 8.0 0.00 0.00 0.13 88 1012.9
20260508045636 14 92 4.8 4.8 0.00 0.00 0.13 89 1009.5
20260508045550 14 88 1.6 6.4 0.00 0.00 0.13 89 1012.9
20260508045136 14 92 4.8 11.3 0.00 0.00 0.13 89 1009.3
20260508045050 14 100 8.0 11.3 0.00 0.00 0.13 89 1012.9
20260508044637 14 69 4.8 9.7 0.00 0.00 0.13 90 1009.4
20260508044551 13 60 6.4 6.4 0.00 0.00 0.13 89 1012.9
20260508044136 13 69 4.8 9.7 0.00 0.00 0.13 90 1009.4
20260508044050 13 80 3.2 8.0 0.00 0.00 0.13 90 1012.9
20260508043637 13 99 6.4 8.0 0.00 0.00 0.13 90 1009.4
20260508043551 13 62 4.8 9.7 0.00 0.00 0.13 90 1012.9
20260508043136 13 99 6.4 8.0 0.00 0.00 0.13 91 1009.5
20260508043052 13 47 1.6 8.0 0.00 0.00 0.13 91 1012.9
20260508042636 13 73 1.6 9.7 0.00 0.00 0.13 91 1009.4
20260508042551 13 88 4.8 8.0 0.00 0.00 0.13 91 1012.9
20260508042136 13 73 1.6 9.7 0.00 0.00 0.13 91 1009.4
20260508042051 13 83 4.8 6.4 0.00 0.00 0.13 91 1012.9
20260508041636 13 91 4.8 6.4 0.00 0.00 0.13 91 1009.3
20260508041552 13 63 4.8 8.0 0.00 0.00 0.13 91 1012.5
20260508041136 13 107 4.8 9.7 0.00 0.00 0.13 91 1009.4
20260508041054 13 130 0.0 8.0 0.00 0.00 0.13 91 1012.9
20260508040636 13 97 4.8 8.0 0.00 0.00 0.13 91 1009.4
20260508040552 13 89 4.8 9.7 0.00 0.00 0.13 91 1012.9
20260508040137 13 97 4.8 8.0 0.00 0.00 0.13 91 1009.2
20260508040053 13 108 4.8 8.0 0.00 0.00 0.13 91 1012.9
20260508035636 13 150 3.2 11.3 0.00 0.00 0.13 91 1009.4
20260508035554 13 107 4.8 8.0 0.00 0.00 0.13 91 1012.9
20260508035136 13 105 8.0 8.0 0.00 0.00 0.13 91 1009.4
20260508035051 13 103 6.4 9.7 0.00 0.00 0.13 91 1012.5
20260508034636 13 105 9.7 9.7 0.00 0.00 0.13 91 1009.2
20260508034550 13 86 3.2 9.7 0.00 0.00 0.13 91 1012.5
20260508034137 13 105 4.8 9.7 0.00 0.00 0.13 91 1009.3
20260508034050 13 121 4.8 9.7 0.00 0.00 0.13 91 1012.9
20260508033636 13 190 1.6 9.7 0.00 0.00 0.13 91 1009.2
20260508033552 13 86 4.8 8.0 0.00 0.00 0.13 91 1012.5
20260508033136 13 102 8.0 8.0 0.00 0.00 0.13 92 1009.1
20260508033052 13 77 3.2 9.7 0.00 0.00 0.13 91 1012.5
20260508032636 13 94 4.8 8.0 0.00 0.00 0.13 92 1009.2
20260508032552 13 103 8.0 8.0 0.00 0.00 0.13 92 1012.5
20260508032136 13 94 4.8 8.0 0.00 0.00 0.13 92 1009.2
20260508032059 13 96 4.8 8.0 0.00 0.00 0.13 92 1012.5
20260508031636 13 101 3.2 6.4 0.00 0.00 0.13 92 1009.2
20260508031551 13 76 4.8 8.0 0.00 0.00 0.13 92 1012.5
20260508031136 13 80 4.8 9.7 0.00 0.00 0.13 92 1009.1
20260508031051 13 110 0.0 6.4 0.00 0.00 0.13 92 1012.5
20260508030636 13 68 4.8 9.7 0.00 0.00 0.13 92 1008.9
20260508030552 13 81 4.8 9.7 0.00 0.00 0.13 92 1012.2
20260508030136 13 42 3.2 12.9 0.00 0.00 0.13 92 1009.1
20260508030054 13 75 4.8 12.9 0.00 0.00 0.13 92 1012.5
20260508025636 13 54 6.4 8.0 0.00 0.00 0.13 92 1008.8
20260508025551 13 47 8.0 9.7 0.00 0.00 0.13 92 1012.5
20260508025136 13 70 8.0 8.0 0.00 0.00 0.13 92 1009.0
20260508025050 13 84 4.8 8.0 0.00 0.00 0.13 92 1012.5
20260508024636 13 82 4.8 8.0 0.00 0.00 0.13 92 1008.8
20260508024550 13 59 4.8 8.0 0.00 0.00 0.13 92 1012.5
20260508024136 13 66 4.8 6.4 0.00 0.00 0.13 92 1008.9
20260508024050 13 64 4.8 8.0 0.00 0.00 0.13 92 1012.2
20260508023636 14 86 6.4 6.4 0.00 0.00 0.13 92 1008.9
20260508023552 14 40 4.8 6.4 0.00 0.00 0.13 92 1012.5
20260508023136 14 86 6.4 8.0 0.00 0.00 0.13 92 1008.6
20260508023054 14 53 4.8 11.3 0.00 0.00 0.13 92 1012.2
20260508022636 13 95 4.8 8.0 0.00 0.00 0.13 92 1009.0
20260508022552 13 69 4.8 9.7 0.00 0.00 0.13 92 1012.2
20260508022136 13 75 4.8 6.4 0.00 0.00 0.13 92 1009.0
20260508022050 13 79 4.8 8.0 0.00 0.00 0.13 92 1012.5
20260508021636 13 81 3.2 8.0 0.00 0.00 0.13 92 1008.7
20260508021553 13 99 3.2 6.4 0.00 0.00 0.13 92 1012.2
20260508021136 13 106 1.6 6.4 0.00 0.00 0.13 92 1008.7
20260508021051 13 98 3.2 8.0 0.00 0.00 0.13 92 1012.2
20260508020636 13 180 0.0 6.4 0.00 0.00 0.13 92 1008.9
20260508020550 13 73 1.6 6.4 0.00 0.00 0.13 92 1012.2
20260508020136 13 92 3.2 4.8 0.00 0.00 0.13 92 1008.8
20260508020051 13 107 6.4 6.4 0.00 0.00 0.13 92 1012.2
20260508015636 13 92 3.2 4.8 0.00 0.00 0.13 92 1009.0
20260508015550 13 112 1.6 4.8 0.00 0.00 0.13 92 1012.2
20260508015136 13 52 1.6 4.8 0.00 0.00 0.13 92 1009.0
20260508015050 13 116 1.6 4.8 0.00 0.00 0.13 92 1012.2
20260508014636 13 138 3.2 4.8 0.00 0.00 0.13 91 1009.0
20260508014550 13 165 4.8 4.8 0.00 0.00 0.13 92 1012.5
20260508014136 13 118 4.8 6.4 0.00 0.00 0.13 91 1009.0
20260508014050 13 122 6.4 6.4 0.00 0.00 0.13 91 1012.2
20260508013636 13 111 3.2 4.8 0.00 0.00 0.13 91 1009.0
20260508013551 13 127 4.8 6.4 0.00 0.00 0.13 91 1012.5
20260508013136 13 157 4.8 6.4 0.00 0.00 0.13 91 1009.1
20260508013051 13 174 4.8 6.4 0.00 0.00 0.13 91 1012.2
20260508012636 13 168 1.6 4.8 0.00 0.00 0.13 91 1009.1
20260508012551 13 181 3.2 6.4 0.00 0.00 0.13 91 1012.5
20260508012136 13 136 3.2 6.4 0.00 0.00 0.13 91 1009.2
20260508012050 13 159 1.6 6.4 0.00 0.00 0.13 91 1012.5
20260508011637 13 152 3.2 8.0 0.00 0.00 0.13 91 1009.0
20260508011554 13 79 1.6 8.0 0.00 0.00 0.13 91 1012.5
20260508011136 13 132 3.2 9.7 0.00 0.00 0.13 90 1009.4
20260508011050 13 163 3.2 6.4 0.00 0.00 0.13 90 1012.9
20260508010636 14 119 6.4 8.0 0.00 0.00 0.13 90 1009.4
20260508010551 14 116 4.8 9.7 0.00 0.00 0.13 90 1012.9
20260508010136 14 81 4.8 8.0 0.00 0.00 0.13 90 1009.4
20260508010051 14 110 3.2 8.0 0.00 0.00 0.13 90 1012.5
20260508005636 14 80 4.8 8.0 0.00 0.00 0.13 90 1009.6
20260508005550 14 121 1.6 4.8 0.00 0.00 0.13 90 1012.9
20260508005136 14 92 3.2 9.7 0.03 0.00 0.13 90 1009.5
20260508005052 14 68 4.8 8.0 0.00 0.00 0.13 90 1012.9
20260508004636 14 72 3.2 11.3 0.03 0.00 0.13 90 1009.4
20260508004551 14 101 6.4 9.7 0.00 0.00 0.13 90 1012.9
20260508004136 14 85 9.7 12.9 0.05 0.00 0.13 90 1009.5
20260508004053 14 85 4.8 11.3 0.00 0.00 0.13 90 1012.9
20260508003636 14 56 6.4 11.3 0.05 0.00 0.13 91 1009.5
20260508003550 14 82 8.0 12.9 0.00 0.00 0.13 90 1012.9
20260508003136 14 64 6.4 9.7 0.05 0.00 0.13 91 1009.7
20260508003053 14 50 9.7 11.3 0.00 0.00 0.13 91 1013.2
20260508002636 14 57 6.4 11.3 0.05 0.00 0.13 91 1009.7
20260508002550 14 27 3.2 14.5 0.00 0.00 0.13 91 1012.9
20260508002136 14 83 8.0 11.3 0.08 0.00 0.13 91 1009.8
20260508002051 14 66 6.4 11.3 0.00 0.00 0.13 91 1013.2
20260508001636 14 85 6.4 9.7 0.05 0.00 0.13 91 1009.8
20260508001554 14 101 9.7 11.3 0.00 0.00 0.13 91 1013.2
20260508001136 14 85 6.4 9.7 0.08 0.00 0.13 91 1010.2
20260508001053 14 60 4.8 9.7 0.00 0.00 0.13 91 1013.5
20260508000636 14 80 3.2 11.3 0.10 0.00 0.13 91 1010.1
20260508000553 14 89 8.0 11.3 0.00 0.00 0.13 91 1013.5
20260508000136 14 110 6.4 12.9 0.10 0.00 0.13 91 1010.4
20260508000053 14 95 4.8 12.9 0.00 0.00 0.13 91 1013.5
20260507235637 14 102 4.8 12.9 0.10 0.00 0.13 91 1010.1
20260507235557 14 111 6.4 11.3 0.13 0.00 0.13 91 1013.5
20260507235136 15 102 4.8 12.9 0.10 0.00 0.13 91 1010.3
20260507235055 15 186 1.6 12.9 0.13 0.00 0.13 91 1013.5
20260507234637 15 80 11.3 14.5 0.13 0.00 0.10 91 1010.4
20260507234551 15 71 11.3 12.9 0.00 0.00 0.10 91 1013.5
20260507234137 15 80 6.4 14.5 0.13 0.00 0.10 91 1010.3
20260507234053 15 98 8.0 14.5 0.00 0.00 0.10 91 1013.5
20260507233636 15 100 9.7 11.3 0.13 0.00 0.10 91 1010.4
20260507233551 15 96 11.3 14.5 0.00 0.00 0.10 91 1013.9
20260507233136 15 100 9.7 11.3 0.13 0.00 0.10 91 1010.5
20260507233050 15 71 6.4 16.1 0.18 0.00 0.10 91 1013.9
20260507232637 15 72 16.1 14.5 0.13 0.00 0.10 91 1010.5
20260507232551 15 91 11.3 22.5 0.18 0.00 0.10 91 1013.9
20260507232136 15 87 11.3 17.7 0.13 0.00 0.08 91 1010.6
20260507232051 15 68 4.8 14.5 0.00 0.00 0.08 91 1013.9
20260507231636 15 106 11.3 17.7 0.10 0.00 0.08 91 1010.7
20260507231552 15 98 8.0 14.5 0.00 0.00 0.08 91 1013.9
20260507231136 15 106 11.3 17.7 0.10 0.00 0.08 91 1010.7
20260507231049 15 75 9.7 14.5 0.13 0.00 0.08 91 1013.9
20260507230636 15 78 9.7 19.3 0.10 0.00 0.05 90 1010.7
20260507230553 15 81 6.4 19.3 0.13 0.00 0.08 90 1013.9
20260507230136 15 78 9.7 20.9 0.08 0.00 0.05 90 1010.8
20260507230051 15 98 12.9 20.9 0.00 0.00 0.05 90 1014.2
20260507225637 15 56 9.7 19.3 0.08 0.00 0.05 90 1010.7
20260507225550 15 75 8.0 19.3 0.18 0.00 0.05 90 1013.9
20260507225136 15 96 11.3 16.1 0.05 0.00 0.03 90 1010.7
20260507225051 15 95 12.9 16.1 0.18 0.00 0.05 90 1014.2
20260507224637 15 85 8.0 16.1 0.05 0.00 0.03 90 1010.8
20260507224555 15 60 8.0 14.5 0.13 0.00 0.03 90 1014.2
20260507224136 15 85 8.0 16.1 0.05 0.00 0.00 90 1010.8
20260507224051 15 78 6.4 19.3 0.00 0.00 0.00 90 1014.2
20260507223636 15 89 11.3 16.1 0.05 0.00 0.00 90 1010.7
20260507223550 15 96 12.9 17.7 0.00 0.00 0.00 90 1014.2
20260507223136 15 76 12.9 16.1 0.05 0.00 0.00 90 1010.9
20260507223051 16 83 8.0 14.5 0.00 0.00 0.00 90 1014.2
20260507222637 16 91 8.0 14.5 0.05 0.00 0.00 89 1011.0
20260507222553 16 105 11.3 19.3 0.00 0.00 0.00 90 1014.2
20260507222136 16 91 8.0 14.5 0.05 0.00 0.00 89 1010.8
20260507222051 16 98 11.3 16.1 0.00 0.00 0.00 89 1014.2
20260507221637 16 80 4.8 17.7 0.05 0.00 0.00 89 1011.0
20260507221550 16 84 6.4 11.3 0.00 0.00 0.00 89 1014.2
20260507221136 16 78 4.8 14.5 0.05 0.00 0.00 89 1010.8
20260507221050 16 96 12.9 14.5 0.00 0.00 0.00 89 1014.2
20260507220637 16 87 11.3 12.9 0.05 0.00 0.00 88 1010.7
20260507220552 16 130 8.0 17.7 0.00 0.00 0.00 88 1013.9
20260507220136 16 94 11.3 12.9 0.05 0.00 0.03 87 1010.7
20260507220050 16 96 9.7 14.5 0.00 0.00 0.03 87 1013.9
20260507215636 16 101 11.3 20.9 0.03 0.00 0.03 86 1010.8
20260507215550 16 106 8.0 19.3 0.18 0.00 0.03 86 1014.2
20260507215136 16 101 8.0 17.7 0.03 0.00 0.00 85 1010.9
20260507215052 16 87 6.4 22.5 0.00 0.00 0.00 85 1014.2
20260507214637 16 102 9.7 17.7 0.03 0.00 0.00 85 1010.8
20260507214550 16 79 12.9 19.3 0.00 0.00 0.00 85 1014.2
20260507214136 16 102 9.7 17.7 0.00 0.00 0.00 85 1010.5
20260507214052 16 96 11.3 24.1 0.00 0.00 0.00 84 1014.2
20260507213636 16 47 11.3 16.1 0.00 0.00 0.00 84 1010.8
20260507213553 16 69 4.8 14.5 0.00 0.00 0.00 84 1013.9
20260507213136 16 47 11.3 16.1 0.00 0.00 0.00 84 1010.7
20260507213052 16 69 4.8 9.7 0.00 0.00 0.00 83 1014.2
20260507212636 16 25 3.2 11.3 0.00 0.00 0.00 82 1010.9
20260507212551 16 73 9.7 17.7 0.00 0.00 0.00 83 1013.9
20260507212137 16 25 8.0 11.3 0.00 0.00 0.00 82 1010.5
20260507212053 16 54 8.0 11.3 0.00 0.00 0.00 82 1013.9
20260507211636 16 61 4.8 14.5 0.00 0.00 0.00 82 1010.6
20260507211550 16 81 8.0 14.5 0.00 0.00 0.00 82 1013.9
20260507211136 16 81 6.4 8.0 0.00 0.00 0.00 82 1010.5
20260507211052 16 49 6.4 11.3 0.00 0.00 0.00 82 1013.9
20260507210637 16 65 6.4 8.0 0.00 0.00 0.00 82 1010.5
20260507210551 16 73 3.2 9.7 0.00 0.00 0.00 81 1013.9
20260507210136 16 65 6.4 8.0 0.00 0.00 0.00 81 1010.4
20260507210051 16 65 6.4 8.0 0.00 0.00 0.00 81 1013.5
20260507205636 16 63 6.4 14.5 0.00 0.00 0.00 81 1010.2
20260507205553 16 94 6.4 8.0 0.00 0.00 0.00 81 1013.5
20260507205136 16 37 4.8 11.3 0.00 0.00 0.00 81 1010.2
20260507205053 16 92 3.2 14.5 0.00 0.00 0.00 81 1013.5
20260507204636 16 86 8.0 11.3 0.00 0.00 0.00 81 1010.0
20260507204550 16 69 4.8 9.7 0.00 0.00 0.00 81 1013.5
20260507204136 16 106 3.2 8.0 0.00 0.00 0.00 81 1010.2
20260507204055 16 66 3.2 11.3 0.00 0.00 0.00 81 1013.5
20260507203636 16 106 3.2 8.0 0.00 0.00 0.00 81 1010.1
20260507203552 16 79 3.2 8.0 0.00 0.00 0.00 81 1013.5
20260507203136 16 69 4.8 8.0 0.00 0.00 0.00 80 1010.2
20260507203052 16 85 4.8 14.5 0.00 0.00 0.00 80 1013.5
20260507202636 16 42 6.4 6.4 0.00 0.00 0.00 80 1010.2
20260507202553 16 73 6.4 8.0 0.00 0.00 0.00 80 1013.5
20260507202136 16 42 6.4 6.4 0.00 0.00 0.00 80 1010.2
20260507202052 16 55 4.8 6.4 0.00 0.00 0.00 80 1013.5
20260507201637 16 103 11.3 12.9 0.00 0.00 0.00 79 1010.2
20260507201551 16 83 6.4 8.0 0.00 0.00 0.00 79 1013.5
20260507201136 16 110 6.4 9.7 0.00 0.00 0.00 78 1010.3
20260507201051 16 80 6.4 9.7 0.00 0.00 0.00 79 1013.5
20260507200636 16 118 0.0 12.9 0.00 0.00 0.00 78 1010.0
20260507200553 16 93 4.8 9.7 0.00 0.00 0.00 78 1013.5
20260507200136 16 118 4.8 12.9 0.00 0.00 0.00 78 1010.1
20260507200053 16 81 4.8 11.3 0.00 0.00 0.00 78 1013.2
20260507195636 16 98 4.8 9.7 0.00 0.00 0.00 78 1009.8
20260507195552 16 98 6.4 9.7 0.00 0.00 0.00 78 1013.2
20260507195136 16 77 6.4 6.4 0.00 0.00 0.00 77 1009.9
20260507195052 16 108 4.8 8.0 0.00 0.00 0.00 77 1013.2
20260507194636 16 77 6.4 6.4 0.00 0.00 0.00 77 1009.8
20260507194554 16 92 3.2 4.8 0.00 0.00 0.00 77 1013.2
20260507194136 16 189 3.2 4.8 0.00 0.00 0.00 77 1009.8
20260507194053 16 109 3.2 11.3 0.00 0.00 0.00 77 1013.2
20260507193636 16 107 8.0 9.7 0.00 0.00 0.00 77 1009.6
20260507193552 16 132 4.8 9.7 0.00 0.00 0.00 77 1012.9
20260507193136 16 123 4.8 8.0 0.00 0.00 0.00 78 1009.5
20260507193054 16 111 8.0 11.3 0.00 0.00 0.00 78 1012.9
20260507192636 16 123 4.8 8.0 0.00 0.00 0.00 78 1009.4
20260507192553 16 64 1.6 9.7 0.00 0.00 0.00 78 1012.9
20260507192136 16 57 4.8 11.3 0.00 0.00 0.00 77 1009.2
20260507192051 16 85 6.4 11.3 0.00 0.00 0.00 77 1012.5
20260507191636 16 60 3.2 9.7 0.00 0.00 0.00 77 1009.3
20260507191550 16 61 4.8 8.0 0.00 0.00 0.00 77 1012.5
20260507191136 16 53 6.4 12.9 0.00 0.00 0.00 77 1009.1
20260507191051 16 58 4.8 12.9 0.00 0.00 0.00 77 1012.5
20260507190636 16 91 8.0 12.9 0.00 0.00 0.00 77 1008.9
20260507190551 16 47 6.4 12.9 0.00 0.00 0.00 77 1012.2
20260507190136 16 91 8.0 9.7 0.00 0.00 0.00 77 1008.8
20260507190051 16 79 8.0 9.7 0.00 0.00 0.00 77 1012.2
20260507185636 16 44 4.8 16.1 0.00 0.00 0.00 78 1008.8
20260507185552 16 79 8.0 14.5 0.00 0.00 0.00 78 1012.2
20260507185136 16 54 4.8 9.7 0.00 0.00 0.00 78 1008.6
20260507185052 16 80 12.9 16.1 0.00 0.00 0.00 78 1012.2
20260507184636 16 58 6.4 9.7 0.00 0.00 0.00 78 1008.9
20260507184551 16 79 6.4 14.5 0.00 0.00 0.00 77 1012.2
20260507184136 16 49 4.8 9.7 0.00 0.00 0.00 77 1009.0
20260507184051 16 70 9.7 12.9 0.00 0.00 0.00 77 1012.2
20260507183636 16 71 3.2 12.9 0.00 0.00 0.00 77 1008.9
20260507183553 16 78 4.8 11.3 0.00 0.00 0.00 77 1012.2
20260507183136 16 46 4.8 8.0 0.00 0.00 0.00 77 1008.9
20260507183053 16 73 6.4 12.9 0.00 0.00 0.00 77 1012.2
20260507182636 16 77 8.0 19.3 0.00 0.00 0.00 76 1008.8
20260507182551 16 52 6.4 16.1 0.00 0.00 0.00 77 1012.2
20260507182136 16 52 9.7 19.3 0.00 0.00 0.00 76 1008.7
20260507182050 16 92 8.0 19.3 0.00 0.00 0.00 76 1012.2
20260507181637 16 52 4.8 14.5 0.00 0.00 0.00 76 1008.7
20260507181550 16 56 6.4 14.5 0.00 0.00 0.00 76 1012.2
20260507181136 16 78 8.0 14.5 0.00 0.00 0.00 76 1008.7
20260507181052 16 80 16.1 17.7 0.00 0.00 0.00 76 1012.2
20260507180636 16 67 11.3 17.7 0.00 0.00 0.00 76 1008.7
20260507180554 16 72 9.7 14.5 0.00 0.00 0.00 76 1012.2
20260507180136 16 67 11.3 17.7 0.00 0.00 0.00 76 1008.7
20260507180053 16 66 8.0 16.1 0.00 0.00 0.00 76 1012.2
20260507175636 16 82 4.8 14.5 0.00 0.00 0.00 76 1008.7
20260507175555 16 37 4.8 16.1 0.00 0.00 0.00 76 1011.9
20260507175136 16 71 9.7 19.3 0.00 0.00 0.00 76 1008.7
20260507175052 16 74 6.4 17.7 0.00 0.00 0.00 76 1011.9
20260507174636 16 66 9.7 17.7 0.00 0.00 0.00 79 1008.7
20260507174552 16 75 9.7 17.7 0.00 0.00 0.00 77 1012.2